Location: Street
(51.1247°N, 2.7429°W)
Time: 04:36:59
(UTC+01:00)

CAS-6 - Pass Details

Date: 29 March 2023
Orbit: 610 x 632 km, 97.9° (Epoch: 29 May)

Event Time Altitude Azimuth Distance (km) Brightness Sun altitude
Exits shadow 00:40:16 12° 304° (NW) 1,837 ? -35.2°
Drops below altitude 10° 00:40:57 10° 312° (NW) 2,000 ? -35.2°
Sets 00:43:52 0° 333° (NNW) 2,918 ? -35.3°
